Temperature
22 22 21 22 27 29 28 28 28 27 26 26 25 25 25 25 24 23 21 20 19 19 18 18 18 18 18 18 18 18 18 18 18 18 18 18 18 18 18 18 18 18 18 18 18 18 18 18 18
21 21 22 26 29 28 27 28 27 27 26 25 25 25 25 24 22 21 20 19 19 19 18 18 18 18 18 18 18 18 18 18 18 18 18 18 18 18 18 18 18 18 18 18 18 18 18 18 18
21 21 25 30 29 28 27 28 27 26 26 25 25 24 24 23 21 21 20 19 19 18 18 18 18 18 18 18 18 18 18 18 18 18 18 18 18 18 18 18 18 18 18 18 18 18 18 18 18
22 24 28 30 28 28 28 28 27 27 26 25 25 25 23 21 21 20 19 19 19 19 18 18 18 18 18 18 18 18 18 18 18 18 18 18 18 18 18 18 18 18 18 18 18 18 18 18 18
23 28 30 30 29 28 29 28 27 28 26 26 25 25 22 20 20 20 19 19 19 19 18 18 18 18 18 18 18 18 18 18 18 18 18 18 18 18 18 18 18 18 18 18 18 18 18 18 18
28 30 30 29 29 29 29 27 27 27 26 25 25 25 22 20 20 20 20 20 19 19 19 18 18 18 18 18 18 18 18 18 18 18 18 18 18 18 18 18 18 18 18 18 18 18 18 18 18
29 31 30 30 29 29 28 27 27 27 26 26 25 25 23 21 20 20 20 19 19 19 19 18 18 18 18 18 18 18 18 18 18 18 18 17 17 17 17 17 17 17 18 18 18 18 18 18 18
28 31 31 30 30 29 28 27 27 27 26 25 25 25 23 21 20 20 20 19 19 19 19 18 18 18 18 18 18 18 18 17 17 17 17 17 17 17 17 17 17 17 17 17 17 17 17 17 18
28 31 31 30 30 29 29 28 27 26 26 25 25 24 23 21 20 20 20 20 19 19 18 18 18 18 18 17 17 17 17 17 17 17 17 17 17 17 17 17 17 17 17 17 17 17 17 17 17
30 31 31 31 31 30 29 28 27 27 27 25 24 23 22 21 21 21 21 20 19 19 18 18 18 18 18 17 17 17 17 17 17 17 17 17 17 17 17 17 17 17 17 17 17 17 17 17 17
31 31 31 31 30 30 29 29 28 28 28 26 25 23 22 21 21 21 21 20 19 19 18 18 18 17 17 17 17 17 17 17 17 17 17 17 17 17 17 17 17 17 17 17 17 17 17 17 17
31 31 30 30 29 29 29 29 28 28 27 26 25 23 22 22 22 21 21 20 19 19 18 18 18 17 17 17 17 17 17 17 17 17 17 17 17 17 17 17 17 17 17 17 17 17 17 17 17
31 31 30 30 29 29 29 29 28 28 26 25 24 23 23 22 22 21 21 20 19 19 18 18 18 17 17 17 17 17 17 17 17 17 17 17 17 17 17 17 17 17 17 17 17 17 17 17 17
31 31 30 30 30 29 29 29 28 27 26 25 24 23 23 22 22 21 20 20 19 19 18 18 17 18 18 17 17 17 17 17 17 17 17 17 17 17 17 17 17 17 17 17 17 17 17 17 17
31 31 31 31 30 29 29 29 29 27 26 25 24 24 23 22 22 21 20 20 19 19 18 18 18 17 18 17 17 17 17 17 17 17 17 17 17 17 17 17 17 17 17 17 17 17 17 17 17
32 32 31 31 30 29 30 30 29 27 26 26 25 24 23 22 22 21 20 19 19 19 18 18 18 18 18 17 17 17 17 17 17 17 17 17 17 17 17 17 17 17 17 17 17 17 17 17 17
32 32 31 31 31 30 30 30 29 27 27 26 25 24 24 23 22 21 20 20 19 18 18 18 18 18 18 17 17 17 17 17 17 17 17 17 17 17 17 17 17 17 17 17 17 17 17 17 17
32 32 32 31 31 30 30 30 30 28 27 27 26 25 24 23 22 21 21 20 19 18 18 18 18 18 18 18 17 17 17 17 17 17 17 17 17 17 17 17 17 17 17 17 17 17 17 17 17
32 32 32 31 31 31 30 30 30 28 28 28 27 26 25 24 23 22 21 20 19 19 18 18 18 18 18 17 17 17 17 17 17 17 17 17 17 17 17 17 17 17 17 17 17 17 17 17 17
32 31 31 31 31 30 30 30 30 29 28 28 27 26 25 24 23 22 21 20 20 19 19 18 18 18 18 18 18 18 18 17 17 17 17 17 17 17 17 17 17 17 17 17 17 17 17 17 17
31 31 31 31 31 31 31 30 30 29 28 28 27 26 26 25 24 22 21 21 20 19 19 19 18 18 18 18 18 18 18 18 17 17 18 18 18 17 17 17 17 17 17 17 17 17 17 17 17
31 32 31 31 31 31 31 30 30 30 29 28 27 27 26 25 24 23 22 21 21 20 19 19 19 19 18 18 18 18 18 18 18 18 18 18 18 17 17 17 17 17 17 17 17 17 17 17 17
31 31 31 31 31 31 31 30 31 30 29 29 29 27 27 26 25 24 23 22 21 20 20 19 19 19 19 18 18 18 18 18 18 18 18 18 18 17 17 17 17 17 17 17 17 17 17 17 17
31 31 30 31 31 30 30 30 30 31 30 30 29 28 27 26 25 24 23 22 21 21 20 19 19 19 19 19 18 18 18 18 18 18 18 18 17 17 18 18 18 17 17 17 17 17 17 17 17
31 30 30 29 30 30 31 30 30 31 31 30 29 28 27 26 25 24 23 22 21 21 20 20 19 19 19 19 18 18 18 18 18 18 18 18 18 18 18 18 18 18 18 17 17 17 17 17 17
31 31 30 29 29 30 30 30 30 31 30 29 28 28 27 26 25 24 23 22 22 21 21 20 20 20 19 19 19 19 18 18 18 18 18 18 18 18 18 18 18 18 18 17 17 17 17 17 17
31 31 32 31 30 30 30 30 30 30 30 29 28 28 27 26 25 25 24 23 22 21 21 20 20 20 20 19 19 19 19 18 18 18 18 18 18 18 18 18 18 18 18 18 17 17 17 17 17
31 31 31 30 29 29 30 30 30 30 30 30 29 28 27 26 26 25 24 23 22 22 21 20 20 20 20 20 19 19 19 19 18 18 18 18 18 18 18 18 18 18 17 18 18 17 17 17 17
30 30 30 30 30 29 29 30 31 30 30 29 29 28 27 26 26 25 24 23 22 22 21 20 20 20 19 19 19 19 19 19 19 18 18 18 18 18 18 18 18 18 17 17 17 17 17 17 17
30 30 30 29 29 29 30 30 31 30 30 29 28 27 26 25 25 24 23 23 22 22 21 20 20 20 20 19 19 19 19 18 18 18 18 18 18 18 18 18 18 17 17 17 17 17 17 17 17
Wind_Speed
13 10 6 4 3 5 11 9 8 7 6 7 6 5 7 8 6 6 5 5 4 5 7 8 9 8 8 9 9 9 9 9 9 10 10 11 11 11 12 14 14 15 17 18 18 18 18 18 18
9 6 5 4 2 8 10 9 9 9 7 6 5 5 7 8 7 6 5 6 5 5 6 8 9 8 8 9 9 9 9 9 9 9 10 11 11 11 13 14 14 15 17 18 18 18 18 17 17
7 6 4 1 9 10 10 8 9 8 6 4 5 6 5 6 6 5 6 6 6 6 6 9 8 8 7 8 9 9 9 9 8 9 9 10 11 12 14 14 15 16 17 17 17 17 17 17 16
5 4 2 4 12 11 9 8 7 7 6 5 5 7 7 6 4 6 7 6 6 6 6 10 8 7 7 8 8 8 8 8 8 9 10 11 11 12 14 14 15 15 16 16 17 16 16 16 15
5 3 3 9 12 10 8 7 5 6 5 5 5 8 8 7 7 9 8 7 7 7 7 9 9 7 7 8 8 8 8 9 10 11 11 11 12 13 13 13 14 14 15 15 15 15 15 14 14
3 1 5 10 11 8 7 5 5 7 7 6 6 8 7 7 8 8 7 7 7 7 8 9 9 8 8 8 8 8 8 9 11 11 12 12 13 13 13 13 13 13 13 13 14 14 14 13 13
3 4 8 9 9 8 6 5 5 6 6 6 4 7 8 8 8 8 7 7 6 6 7 7 7 8 8 8 8 7 8 9 10 11 12 12 13 13 13 12 12 12 12 13 14 14 13 13 13
3 1 7 9 9 9 6 5 5 5 7 6 3 5 8 9 8 8 7 6 6 6 6 6 6 7 7 8 9 8 8 8 9 10 11 11 12 12 12 12 11 12 13 13 14 13 13 12 12
4 2 9 9 8 8 7 6 6 5 7 5 5 6 10 12 9 8 7 6 6 5 5 5 5 5 6 8 9 8 8 7 7 9 10 8 9 10 10 12 12 12 13 13 13 13 12 11 12
2 5 10 7 7 8 6 5 6 6 7 7 8 10 12 11 9 8 6 6 6 5 4 5 5 5 5 6 7 6 5 6 6 6 7 8 8 8 10 12 12 12 12 12 12 11 10 7 8
2 5 6 5 5 6 6 6 5 4 5 6 9 12 12 11 9 7 6 5 6 5 4 5 5 5 5 4 5 4 4 5 5 6 8 8 8 8 8 8 9 9 9 8 9 8 6 6 6
2 3 3 4 5 5 6 5 4 3 6 7 9 12 12 10 8 7 6 5 5 4 4 5 5 5 4 4 4 4 4 4 5 6 7 7 6 6 6 5 6 6 6 6 5 5 6 6 6
2 3 3 4 5 4 5 5 4 6 7 9 11 12 11 9 7 6 5 5 5 4 4 4 5 5 4 4 2 4 4 4 5 6 6 6 6 6 6 5 4 5 5 5 4 5 5 5 5
2 3 4 5 5 4 4 5 4 6 9 11 11 10 9 8 7 6 6 5 5 4 4 5 5 5 4 4 3 3 4 4 4 5 6 6 6 6 6 5 4 4 4 4 4 5 4 4 4
3 3 4 4 4 4 4 5 4 8 10 10 10 9 8 8 7 6 6 5 5 5 5 5 5 5 5 4 4 4 4 5 4 5 6 5 6 6 5 4 4 4 5 5 4 5 4 4 4
5 4 2 4 4 4 6 3 7 9 10 10 9 9 8 8 7 6 6 6 5 5 5 5 5 6 5 4 3 3 3 4 4 5 5 5 5 5 4 4 4 4 4 4 4 4 4 3 3
5 3 0 4 5 4 6 1 7 9 10 10 9 9 9 9 8 7 7 7 6 6 6 6 5 5 5 5 4 3 3 2 3 4 4 5 5 5 4 3 4 4 4 4 4 5 4 4 3
3 3 2 1 4 6 6 2 5 9 9 9 9 9 9 9 8 8 7 7 7 7 7 6 6 5 5 5 4 3 3 3 3 4 4 5 5 5 4 4 5 4 4 3 3 4 3 3 3
5 6 4 1 2 5 5 4 5 9 10 9 10 10 10 9 9 8 8 8 8 7 8 7 7 7 5 4 4 4 4 3 3 3 5 5 4 5 4 3 4 4 3 4 4 4 4 3 3
7 7 5 2 2 4 4 4 4 8 11 10 10 10 10 10 9 9 9 9 9 9 8 8 8 8 7 5 4 3 3 3 4 3 4 4 4 4 5 3 4 4 4 4 4 4 2 3 3
9 7 6 4 3 5 5 5 5 7 9 10 10 10 11 10 11 11 11 10 9 9 9 8 9 8 7 6 5 4 4 3 4 4 4 4 4 4 3 3 3 3 4 4 4 4 4 3 3
10 6 6 5 6 4 5 4 4 7 9 10 11 11 12 12 11 11 11 11 10 10 10 9 9 8 8 7 6 6 5 4 4 3 4 4 4 4 4 4 3 3 3 3 4 4 3 4 4
8 4 6 7 8 7 6 6 3 6 6 9 11 12 12 12 12 12 12 12 11 10 10 10 10 9 9 8 7 6 5 4 4 4 4 4 4 4 4 4 4 4 4 4 4 3 4 4 4
6 6 6 8 9 9 7 7 4 3 4 5 7 9 11 11 12 12 12 11 11 11 10 10 10 10 9 9 8 7 6 5 4 5 5 5 4 4 5 5 5 5 4 4 4 4 6 5 5
11 10 8 9 9 8 5 7 4 1 2 2 4 7 9 11 12 12 12 12 12 12 11 11 11 10 9 9 8 8 7 7 6 5 5 5 4 5 5 5 5 5 5 5 5 5 5 5 6
14 14 11 9 9 7 7 6 3 2 2 2 3 5 7 9 11 12 13 12 12 13 12 12 11 11 10 9 8 7 7 6 5 6 5 5 4 4 4 5 6 6 5 5 5 5 5 5 6
14 14 12 11 11 10 7 6 6 4 4 4 5 5 6 8 9 11 12 12 12 12 13 13 12 11 10 10 9 8 8 7 5 5 6 5 4 4 5 5 6 6 6 5 5 5 5 5 6
12 11 9 11 10 11 9 9 6 7 6 5 4 4 5 7 8 9 10 11 11 11 12 12 11 11 10 10 9 8 8 7 7 6 6 5 4 4 5 5 6 6 6 5 5 5 5 5 5
11 13 11 11 11 11 10 6 3 5 6 5 4 3 4 6 7 8 9 10 11 11 11 11 11 10 10 9 9 8 7 7 7 6 6 6 5 5 5 5 5 5 5 5 5 6 5 6 6
12 14 14 12 11 12 11 6 2 3 4 4 3 3 3 4 6 7 8 9 9 10 11 11 10 10 9 9 8 8 7 7 7 6 6 6 5 5 5 5 5 6 5 5 6 6 6 7 7
Wind_Direction
169 178 203 231 217 79 64 61 60 68 68 63 63 56 56 45 34 72 85 90 87 81 84 93 86 84 87 91 93 98 97 94 94 96 105 106 104 106 112 117 120 121 125 129 131 131 132 132 131
169 183 224 242 47 73 67 61 64 64 79 88 78 68 68 63 58 89 96 95 95 85 85 84 86 85 88 93 95 97 100 97 97 98 101 101 100 103 115 116 119 121 125 129 130 132 132 133 131
175 221 263 33 54 58 67 68 78 84 83 80 80 62 54 64 77 88 95 110 104 89 89 92 90 90 94 96 97 97 100 99 100 102 101 100 99 103 114 116 117 119 124 129 132 134 134 132 132
204 226 231 61 66 61 66 80 92 97 85 75 91 87 76 68 75 94 110 114 105 99 93 92 92 92 95 100 100 96 95 100 104 104 103 103 102 106 112 114 116 117 120 124 128 131 133 133 133
245 260 89 73 71 69 72 80 84 78 81 85 90 95 90 81 93 106 115 112 102 97 95 94 95 91 93 100 100 95 95 96 103 102 101 104 106 109 112 113 115 118 121 123 129 134 134 134 137
248 288 58 68 74 78 84 89 84 80 92 95 99 99 92 111 113 113 111 105 97 95 93 95 108 99 92 98 103 99 98 97 101 99 98 103 107 112 114 115 116 120 122 124 127 132 132 132 137
318 35 61 68 78 83 86 93 81 87 94 90 99 99 111 121 119 120 114 103 94 89 93 99 106 108 106 101 102 104 101 100 104 103 100 104 109 113 116 118 119 122 122 123 124 125 131 131 134
306 19 72 72 73 81 104 106 87 88 88 97 107 102 122 132 135 127 119 109 97 92 93 96 99 105 108 107 109 100 101 101 105 110 108 112 116 120 121 120 118 119 121 123 123 126 129 129 133
268 47 64 63 68 91 119 120 109 100 110 107 89 90 119 133 138 133 124 114 103 93 93 94 97 102 105 106 107 108 112 111 115 116 119 127 121 117 122 111 114 118 120 117 116 120 126 133 134
289 55 63 61 65 93 119 117 125 132 122 117 114 110 127 138 141 137 131 128 122 117 112 105 103 102 103 103 109 114 114 115 111 110 118 120 114 113 112 113 115 117 119 118 117 123 139 151 135
40 54 63 77 80 95 117 118 131 128 112 123 135 138 143 145 146 143 137 131 124 127 116 115 111 115 107 105 113 114 115 116 113 107 111 114 118 121 120 124 127 126 132 129 129 144 140 131 119
81 62 60 89 108 118 112 117 122 94 80 111 133 142 148 153 149 147 140 133 130 131 124 118 122 120 103 101 112 125 119 117 114 111 115 123 123 123 123 127 123 127 127 123 129 121 122 121 121
106 85 92 111 132 122 125 121 112 109 107 121 134 146 153 155 149 144 138 135 136 138 137 124 127 123 123 121 119 114 108 113 111 112 115 123 128 126 125 121 121 124 127 135 126 115 115 117 122
79 115 123 128 123 142 148 129 135 122 133 137 145 154 157 155 155 152 151 151 152 151 144 137 141 135 134 134 126 118 120 118 116 119 118 123 126 123 127 133 132 129 132 119 121 120 126 130 120
175 161 144 145 157 162 185 150 134 138 148 150 154 158 158 160 162 165 163 164 162 159 153 151 149 140 142 143 145 132 132 129 122 122 124 129 131 128 132 133 139 131 132 131 131 129 133 141 135
206 216 158 140 178 177 227 113 130 152 162 161 163 163 168 171 175 174 171 171 164 160 159 163 156 147 149 147 147 133 121 120 126 130 131 128 128 135 142 143 139 140 146 138 137 145 139 140 138
216 248 73 132 184 195 232 109 136 165 172 170 173 174 177 178 184 181 179 178 174 171 170 170 161 156 158 154 158 146 129 125 133 132 135 132 141 144 151 145 132 151 146 145 154 136 143 142 132
247 267 254 179 174 215 232 230 155 177 185 180 180 183 185 187 185 177 176 173 173 172 174 174 171 167 168 165 164 158 146 148 148 144 139 145 154 156 159 157 151 160 151 146 135 133 143 144 143
267 270 266 203 172 230 244 247 193 186 194 191 189 190 191 190 181 176 179 177 175 174 175 178 177 171 176 176 179 172 164 163 155 157 148 155 162 158 169 162 156 170 159 154 152 150 150 154 155
250 257 253 212 194 244 261 253 207 195 202 202 198 195 195 188 180 178 183 183 181 178 179 180 180 177 183 178 181 173 160 162 154 151 147 159 162 169 170 170 179 168 162 166 162 170 176 178 186
240 255 265 258 222 222 255 225 196 190 203 206 208 203 197 195 188 184 186 188 185 182 183 184 184 181 186 182 181 169 162 173 161 164 164 167 170 173 171 170 187 177 189 175 183 192 199 200 199
238 244 260 246 240 237 250 272 180 184 197 205 207 206 202 196 193 189 186 188 187 185 183 184 183 185 186 187 190 186 184 180 173 177 166 166 172 176 176 180 184 193 196 181 203 201 210 211 208
245 232 239 242 248 257 235 266 207 173 205 205 204 205 204 198 193 190 189 187 187 183 181 181 183 185 187 192 190 197 199 189 176 174 165 179 179 190 193 189 192 199 205 203 218 211 222 218 225
208 209 222 235 245 249 248 257 261 194 224 215 197 200 203 197 193 189 187 184 185 183 183 180 180 184 187 191 194 201 202 198 185 181 181 188 186 191 194 195 200 210 213 207 217 221 221 229 232
212 224 231 233 234 243 224 246 255 238 220 213 187 186 192 193 191 188 185 185 186 186 184 182 180 184 186 191 196 200 205 203 202 204 194 200 196 194 190 201 205 213 213 216 221 222 234 229 225
219 232 241 252 255 245 213 238 231 174 170 164 169 170 176 183 188 188 187 187 187 187 185 184 183 186 186 189 194 198 203 209 208 210 214 205 209 204 190 202 208 213 217 221 220 230 228 228 230
224 230 247 252 258 260 238 230 225 200 197 177 169 170 174 179 182 186 186 188 186 187 186 186 185 187 189 190 191 195 200 210 212 206 217 215 212 207 196 206 210 213 216 223 227 236 235 236 236
238 234 235 242 250 258 245 237 229 205 203 190 180 175 174 177 180 180 181 185 185 183 184 186 186 188 189 190 194 193 199 206 212 216 215 223 217 214 211 217 220 222 221 220 226 231 229 238 242
211 220 230 242 249 255 258 243 215 205 205 198 187 181 176 179 178 175 178 182 181 178 180 184 185 187 190 193 194 199 199 205 210 215 219 220 222 218 220 221 224 226 229 226 225 236 230 234 240
229 229 224 232 239 247 261 253 139 185 203 198 190 182 179 177 175 170 168 172 177 178 180 182 185 188 191 192 193 198 201 204 208 212 217 218 219 221 220 222 223 226 230 230 231 239 241 238 239
Height
1497 1497 1498 1500 1493 1490 1497 1496 1494 1497 1500 1504 1505 1504 1504 1506 1509 1517 1519 1517 1517 1517 1516 1515 1513 1513 1513 1513 1513 1513 1512 1512 1512 1511 1511 1512 1512 1512 1513 1515 1515 1516 1518 1520 1523 1526 1529 1532 1536
1499 1499 1501 1496 1487 1498 1503 1497 1498 1501 1504 1506 1507 1507 1507 1511 1514 1517 1518 1519 1519 1518 1518 1516 1515 1515 1515 1515 1515 1514 1514 1514 1514 1513 1513 1513 1514 1514 1515 1516 1517 1519 1520 1523 1525 1528 1531 1534 1537
1500 1500 1500 1489 1491 1499 1503 1498 1501 1504 1506 1507 1508 1509 1511 1515 1518 1519 1520 1520 1520 1520 1519 1518 1517 1517 1516 1516 1516 1516 1516 1515 1515 1515 1515 1515 1516 1516 1517 1518 1519 1521 1522 1524 1527 1529 1532 1535 1538
1502 1501 1496 1489 1496 1497 1497 1499 1502 1503 1507 1508 1508 1511 1516 1519 1520 1520 1520 1521 1522 1521 1521 1519 1518 1518 1518 1518 1517 1517 1517 1516 1515 1516 1516 1516 1517 1518 1520 1521 1522 1523 1525 1526 1528 1531 1534 1537 1539
1502 1496 1489 1492 1496 1497 1498 1501 1503 1502 1506 1509 1509 1512 1518 1521 1521 1522 1522 1523 1523 1523 1523 1521 1520 1520 1519 1519 1519 1518 1518 1517 1516 1517 1517 1517 1518 1520 1522 1523 1525 1526 1527 1528 1530 1533 1535 1538 1540
1499 1491 1491 1498 1499 1498 1500 1503 1504 1505 1508 1510 1511 1513 1519 1522 1523 1523 1524 1524 1525 1525 1524 1523 1521 1521 1521 1521 1520 1520 1520 1519 1519 1519 1519 1519 1521 1523 1525 1526 1527 1528 1529 1529 1531 1534 1536 1539 1541
1498 1489 1492 1495 1498 1499 1502 1504 1504 1506 1509 1511 1513 1513 1519 1523 1524 1524 1525 1526 1526 1526 1526 1525 1524 1523 1523 1522 1522 1522 1522 1521 1521 1521 1521 1522 1524 1525 1527 1528 1529 1530 1530 1531 1532 1534 1537 1540 1542
1498 1490 1490 1492 1496 1500 1502 1505 1507 1507 1510 1514 1514 1514 1519 1523 1524 1525 1526 1526 1527 1527 1527 1526 1526 1526 1526 1525 1523 1523 1523 1523 1523 1523 1523 1524 1526 1527 1529 1530 1531 1532 1532 1533 1534 1536 1539 1542 1544
1499 1491 1493 1493 1494 1498 1502 1504 1508 1510 1512 1514 1515 1516 1520 1523 1525 1526 1527 1527 1527 1527 1527 1528 1527 1527 1528 1527 1526 1525 1525 1525 1525 1525 1525 1526 1528 1529 1531 1532 1533 1534 1535 1536 1538 1539 1542 1545 1547
1496 1491 1494 1494 1493 1496 1502 1503 1507 1508 1511 1514 1517 1519 1521 1523 1525 1526 1527 1527 1528 1528 1528 1528 1529 1528 1529 1529 1528 1527 1527 1527 1526 1525 1525 1526 1529 1531 1533 1534 1535 1537 1538 1539 1541 1544 1546 1548 1550
1495 1493 1494 1495 1497 1499 1501 1504 1506 1506 1508 1512 1516 1519 1522 1524 1525 1526 1527 1528 1528 1529 1529 1529 1529 1529 1530 1530 1530 1529 1529 1529 1528 1527 1526 1528 1531 1534 1536 1538 1539 1540 1542 1543 1545 1547 1549 1551 1552
1495 1496 1497 1497 1500 1500 1501 1504 1506 1507 1510 1513 1516 1519 1522 1524 1525 1527 1528 1528 1529 1529 1530 1530 1530 1530 1530 1531 1531 1531 1531 1531 1531 1529 1530 1532 1534 1536 1538 1540 1542 1543 1545 1546 1548 1550 1551 1552 1554
1495 1496 1497 1499 1500 1501 1503 1504 1506 1509 1512 1515 1518 1520 1522 1524 1526 1527 1528 1529 1529 1529 1530 1530 1530 1530 1531 1531 1532 1533 1532 1533 1533 1532 1533 1534 1537 1539 1541 1542 1544 1545 1547 1548 1549 1551 1553 1554 1556
1495 1496 1497 1498 1500 1502 1502 1504 1506 1510 1513 1516 1518 1520 1522 1524 1526 1527 1528 1529 1529 1530 1530 1531 1531 1531 1531 1532 1533 1533 1534 1534 1536 1536 1537 1537 1539 1541 1543 1544 1546 1547 1549 1550 1551 1553 1554 1556 1557
1496 1494 1495 1497 1499 1501 1502 1503 1504 1510 1513 1516 1518 1520 1522 1524 1526 1527 1528 1529 1529 1530 1530 1530 1531 1531 1532 1533 1534 1535 1536 1536 1537 1537 1538 1540 1542 1543 1544 1546 1548 1549 1551 1551 1553 1554 1556 1557 1559
1493 1491 1494 1495 1497 1500 1502 1501 1503 1509 1512 1514 1517 1520 1522 1523 1525 1526 1527 1528 1529 1529 1530 1530 1532 1532 1533 1534 1535 1537 1538 1538 1538 1539 1540 1541 1543 1544 1545 1547 1549 1550 1552 1553 1554 1556 1557 1558 1559
1491 1493 1493 1494 1495 1497 1498 1498 1502 1507 1510 1512 1515 1518 1520 1522 1523 1524 1525 1526 1527 1528 1529 1530 1532 1533 1534 1535 1536 1537 1538 1539 1540 1541 1542 1543 1544 1546 1547 1548 1549 1551 1552 1554 1555 1556 1557 1559 1560
1494 1491 1492 1493 1493 1495 1496 1496 1500 1505 1507 1510 1513 1515 1517 1519 1521 1523 1524 1525 1526 1527 1528 1530 1531 1532 1534 1536 1537 1538 1539 1539 1540 1542 1542 1544 1545 1546 1548 1549 1550 1552 1553 1554 1555 1556 1557 1559 1560
1487 1489 1490 1490 1490 1493 1494 1495 1496 1502 1505 1507 1510 1512 1515 1517 1520 1522 1523 1524 1526 1526 1527 1529 1530 1532 1534 1535 1537 1538 1539 1540 1541 1542 1543 1544 1546 1547 1548 1550 1551 1552 1554 1554 1556 1557 1558 1559 1560
1488 1490 1490 1490 1490 1492 1492 1493 1492 1497 1501 1504 1506 1509 1512 1515 1518 1520 1522 1523 1524 1525 1526 1528 1529 1531 1533 1535 1537 1538 1539 1541 1542 1543 1543 1544 1546 1547 1549 1549 1551 1552 1553 1554 1555 1556 1558 1559 1560
1488 1489 1489 1491 1490 1489 1492 1493 1492 1494 1498 1502 1504 1507 1509 1512 1514 1517 1519 1521 1523 1524 1525 1527 1529 1531 1533 1535 1537 1538 1539 1540 1542 1542 1543 1544 1546 1547 1548 1549 1551 1551 1553 1554 1555 1556 1557 1558 1559
1489 1485 1486 1489 1492 1491 1492 1498 1490 1489 1493 1497 1500 1503 1505 1509 1512 1514 1517 1519 1521 1522 1524 1526 1528 1530 1532 1534 1536 1537 1539 1540 1541 1542 1544 1544 1545 1547 1548 1549 1550 1551 1552 1553 1554 1556 1556 1557 1558
1484 1484 1485 1487 1489 1490 1490 1495 1488 1486 1490 1491 1495 1498 1502 1505 1508 1511 1514 1516 1519 1521 1523 1525 1527 1529 1531 1533 1535 1536 1538 1540 1541 1542 1543 1544 1545 1546 1547 1548 1549 1550 1551 1552 1553 1554 1555 1556 1557
1484 1486 1487 1486 1485 1499 1491 1496 1494 1483 1486 1486 1490 1495 1499 1502 1505 1509 1512 1515 1517 1520 1522 1524 1525 1527 1529 1531 1533 1535 1537 1539 1540 1541 1542 1543 1544 1545 1546 1547 1548 1549 1550 1551 1551 1552 1553 1553 1554
1484 1489 1499 1502 1500 1496 1485 1492 1491 1481 1481 1484 1487 1492 1495 1499 1502 1506 1509 1512 1515 1517 1520 1522 1523 1525 1528 1530 1532 1533 1535 1537 1538 1540 1541 1542 1544 1544 1544 1546 1546 1547 1548 1548 1549 1550 1551 1551 1551
1480 1482 1498 1508 1503 1491 1487 1491 1483 1479 1482 1485 1488 1490 1493 1496 1499 1502 1506 1509 1512 1515 1517 1520 1521 1523 1526 1528 1530 1532 1534 1536 1538 1538 1540 1541 1542 1543 1543 1544 1544 1545 1546 1547 1547 1548 1548 1549 1549
1478 1478 1473 1483 1487 1492 1485 1482 1478 1478 1481 1484 1486 1489 1491 1494 1496 1499 1503 1506 1509 1512 1514 1517 1519 1521 1523 1526 1528 1530 1531 1533 1535 1537 1538 1539 1540 1541 1541 1542 1543 1543 1544 1545 1545 1546 1546 1546 1547
1472 1471 1477 1483 1500 1502 1490 1484 1481 1479 1479 1480 1483 1486 1489 1492 1494 1497 1501 1504 1507 1509 1512 1515 1517 1519 1521 1524 1526 1528 1529 1531 1533 1534 1535 1537 1538 1539 1539 1540 1541 1542 1542 1542 1543 1543 1543 1544 1544
1476 1476 1476 1477 1480 1495 1497 1485 1467 1472 1475 1478 1481 1485 1488 1490 1493 1496 1499 1502 1505 1507 1510 1512 1515 1517 1519 1522 1524 1526 1527 1529 1531 1532 1533 1534 1535 1536 1537 1538 1539 1539 1540 1540 1540 1541 1541 1541 1541
1468 1469 1473 1485 1487 1483 1485 1482 1466 1470 1474 1478 1481 1485 1487 1490 1492 1495 1497 1500 1503 1505 1508 1510 1512 1515 1517 1519 1521 1523 1525 1526 1528 1530 1531 1532 1533 1534 1535 1536 1536 1537 1537 1537 1538 1538 1539 1538 1538